EW6336 Weather Reports


time (UTC)temp
F
wind
direction
speed
knots
gust
knots
rain 1hr
in
rain 24hr
in
rain mn
in
humidity
%
barometer
mb
20260504050242 63 0.0 0.9 0.00 0.00 0.00 88 1012.0
20260504045243 63 338 0.9 2.6 0.00 0.00 0.00 88 1011.9
20260504044242 63 113 0.9 2.6 0.00 0.00 0.00 88 1011.7
20260504043302 63 0.0 0.0 0.00 0.00 0.00 87 1011.8
20260504042242 63 0.0 0.0 0.00 0.00 0.00 87 1011.7
20260504041242 64 0.0 1.7 0.00 0.00 0.00 87 1011.6
20260504040302 64 0.0 0.0 0.00 0.00 0.00 87 1011.5
20260504035242 64 225 0.9 1.7 0.00 0.00 0.00 87 1011.8
20260504034242 64 0.0 0.0 0.00 0.00 0.00 87 1012.0
20260504033242 64 0.0 1.7 0.00 0.00 0.00 87 1012.1
20260504032242 64 0.0 0.0 0.00 0.00 0.00 87 1012.1
20260504031302 64 225 0.9 0.9 0.00 0.00 0.00 87 1012.1
20260504030322 64 225 0.9 2.6 0.00 0.00 0.00 87 1012.0
20260504025243 64 225 0.9 2.6 0.00 0.00 0.00 87 1012.1
20260504024305 64 225 1.7 2.6 0.00 0.00 0.00 87 1012.1
20260504023244 65 225 1.7 3.5 0.00 0.00 0.00 87 1012.2
20260504022244 65 270 1.7 5.2 0.00 0.00 0.00 86 1012.3
20260504021244 65 203 0.9 3.5 0.00 0.00 0.00 86 1012.3
20260504020244 65 270 1.7 4.3 0.00 0.00 0.00 86 1012.4
20260504015244 65 225 3.5 7.8 0.00 0.00 0.00 86 1012.5
20260504014244 65 270 1.7 4.3 0.00 0.00 0.00 85 1012.5
20260504013244 65 248 2.6 6.1 0.00 0.00 0.00 85 1012.5
20260504012244 65 225 3.5 8.7 0.00 0.00 0.00 85 1012.6
20260504011244 65 248 2.6 7.0 0.00 0.00 0.00 84 1012.7
20260504010244 65 203 4.3 7.8 0.00 0.00 0.00 84 1012.5
20260504005244 65 225 2.6 6.1 0.00 0.00 0.00 84 1012.6
20260504004244 65 203 3.5 7.0 0.00 0.00 0.00 84 1012.5
20260504003244 65 158 2.6 7.8 0.00 0.00 0.00 84 1012.7
20260504002304 65 270 3.5 7.8 0.00 0.00 0.00 84 1012.8
20260504001244 65 225 2.6 7.8 0.00 0.00 0.00 85 1012.9
20260504000244 65 203 2.6 6.1 0.00 0.00 0.00 86 1013.0
20260503235243 65 203 2.6 7.0 0.00 0.00 0.00 86 1013.0
20260503234243 65 248 2.6 7.8 0.00 0.00 0.00 86 1013.0
20260503233243 65 225 3.5 7.8 0.00 0.00 0.00 86 1012.9
20260503232243 65 225 3.5 9.6 0.00 0.00 0.00 86 1013.0
20260503231243 66 248 2.6 6.1 0.00 0.00 0.00 86 1013.0
20260503230243 65 270 3.5 9.6 0.00 0.00 0.00 86 1013.0
20260503225243 66 225 3.5 6.1 0.00 0.00 0.00 86 1012.9
20260503224243 66 203 1.7 5.2 0.00 0.00 0.00 86 1013.0
20260503223303 66 248 2.6 6.1 0.00 0.00 0.00 86 1013.0
20260503222304 66 248 3.5 7.0 0.00 0.00 0.00 86 1013.0
20260503221243 66 248 2.6 5.2 0.00 0.00 0.00 86 1013.1
20260503220243 66 225 3.5 7.8 0.00 0.00 0.00 86 1013.0
20260503215243 66 203 3.5 7.8 0.00 0.00 0.00 87 1013.0
20260503214243 66 203 2.6 7.8 0.00 0.00 0.00 86 1013.0
20260503213243 66 225 3.5 8.7 0.00 0.00 0.00 86 1012.9
20260503212243 66 203 2.6 5.2 0.00 0.00 0.00 86 1013.0
20260503211242 66 248 4.3 10.4 0.00 0.00 0.00 86 1012.9
20260503210243 66 225 3.5 8.7 0.00 0.00 0.00 85 1012.8
20260503205242 66 225 2.6 6.1 0.00 0.00 0.00 85 1012.7
20260503204243 66 225 4.3 10.4 0.00 0.00 0.00 85 1012.6
20260503203243 66 180 3.5 7.8 0.00 0.00 0.00 84 1012.5
20260503202243 66 248 3.5 7.8 0.00 0.00 0.00 85 1012.4
20260503201423 66 203 4.3 10.4 0.00 0.00 0.00 85 1012.2
20260503200302 66 225 6.1 12.2 0.00 0.00 0.00 85 1012.0
20260503195243 66 225 4.3 9.6 0.00 0.00 0.00 85 1011.8
20260503194243 67 225 2.6 9.6 0.00 0.00 0.00 85 1011.7
20260503193242 67 225 3.5 7.8 0.00 0.00 0.00 84 1011.5
20260503192305 67 248 4.3 9.6 0.00 0.00 0.00 84 1011.4
20260503191242 67 270 3.5 7.8 0.00 0.00 0.00 84 1011.3
20260503190243 67 225 4.3 10.4 0.00 0.00 0.00 84 1011.2
20260503185304 67 270 4.3 10.4 0.00 0.00 0.00 84 1011.1
20260503184323 67 203 7.0 13.0 0.00 0.00 0.00 83 1011.0
20260503183242 67 225 6.1 11.3 0.00 0.00 0.00 82 1011.0
20260503182242 68 225 4.3 10.4 0.00 0.00 0.00 81 1010.9
20260503181242 68 225 4.3 13.0 0.00 0.00 0.00 79 1010.7
20260503180242 69 225 5.2 13.0 0.00 0.00 0.00 78 1010.7
20260503175242 69 225 6.1 11.3 0.00 0.00 0.00 77 1010.7
20260503174242 69 225 4.3 10.4 0.00 0.00 0.00 77 1010.8
20260503173242 69 248 5.2 9.6 0.00 0.00 0.00 78 1010.7
20260503172242 69 203 5.2 11.3 0.00 0.00 0.00 78 1010.8
20260503171242 69 203 3.5 9.6 0.00 0.00 0.00 79 1010.8
20260503170242 69 180 5.2 11.3 0.00 0.00 0.00 80 1010.9
20260503150244 70 203 5.2 11.3 0.00 0.00 0.00 79 1011.9
20260503140244 68 158 4.3 9.6 0.00 0.00 0.00 83 1013.0
20260503131244 67 225 2.6 7.0 0.00 0.00 0.00 83 1013.7
20260503130244 67 270 4.3 7.8 0.00 0.00 0.00 83 1013.9
20260503110243 68 270 1.7 6.1 0.00 0.00 0.00 80 1015.0
20260503100243 65 113 2.6 7.8 0.00 0.00 0.00 88 1015.5
20260503090243 65 225 2.6 6.1 0.00 0.00 0.00 89 1015.3
20260503081303 65 248 2.6 7.0 0.00 0.00 0.00 88 1015.3
20260503080243 65 270 1.7 4.3 0.00 0.00 0.00 89 1015.2
20260503072243 65 225 3.5 6.1 0.00 0.00 0.00 89 1015.0
20260503071243 65 203 2.6 6.1 0.00 0.00 0.00 89 1015.0
20260503070243 65 248 1.7 4.3 0.00 0.00 0.00 89 1015.0